This is the latest recevied weather packets stored in our database for station/object N3EG. If no packets are shown the sender has not sent any weather packets the latest 10 day(s).
| Time | Temp. | Humidity | Pressure | Rain* | Wind** | Luminosity | Snow |
|---|---|---|---|---|---|---|---|
| 1777934103 | 22.78° C | 65% | 1011.4 hPa | 0 mm | - | - | - |
| 1777933802 | 23.33° C | 65% | 1011.4 hPa | 0 mm | - | - | - |
| 1777933503 | 23.33° C | 66% | 1011.5 hPa | 0 mm | - | - | - |
| 1777933202 | 23.33° C | 65% | 1011.5 hPa | 0 mm | - | - | - |
| 1777932902 | 23.33° C | 63% | 1011.6 hPa | 0 mm | - | - | - |
| 1777932603 | 23.89° C | 64% | 1011.6 hPa | 0 mm | - | - | - |
| 1777932303 | 23.33° C | 64% | 1011.6 hPa | 0 mm | - | - | - |
| 1777932002 | 23.33° C | 65% | 1011.8 hPa | 0 mm | - | - | - |
| 1777931703 | 23.33° C | 63% | 1011.8 hPa | 0 mm | - | - | - |
| 1777931403 | 22.78° C | 62% | 1011.8 hPa | 0 mm | - | - | - |
| 1777931102 | 22.78° C | 62% | 1011.8 hPa | 0 mm | - | - | - |
| 1777930803 | 22.78° C | 65% | 1011.8 hPa | 0 mm | - | - | - |
| 1777930502 | 22.78° C | 66% | 1011.9 hPa | 0 mm | - | - | - |
| 1777930202 | 22.78° C | 66% | 1011.9 hPa | 0 mm | - | - | - |
| 1777929903 | 22.78° C | 67% | 1012 hPa | 0 mm | - | - | - |
| 1777929602 | 22.78° C | 66% | 1011.9 hPa | 0 mm | - | - | - |
| 1777929302 | 22.78° C | 66% | 1012 hPa | 0 mm | - | - | - |
| 1777929003 | 22.78° C | 66% | 1012 hPa | 0 mm | - | - | - |
| 1777928702 | 22.78° C | 68% | 1012.1 hPa | 0 mm | - | - | - |
| 1777928402 | 22.22° C | 67% | 1012.1 hPa | 0 mm | - | - | - |
| 1777928103 | 22.22° C | 68% | 1012.3 hPa | 0 mm | - | - | - |
| 1777927802 | 22.22° C | 67% | 1012.3 hPa | 0 mm | - | - | - |
| 1777927502 | 22.22° C | 68% | 1012.2 hPa | 0 mm | - | - | - |
| 1777927203 | 21.67° C | 69% | 1012.3 hPa | 0 mm | - | - | - |
| 1777926902 | 21.67° C | 69% | 1012.5 hPa | 0 mm | - | - | - |
* Rain latest hour (hover to see other rain measurements)
** Current wind speed in m/s (hover to see current wind gust speed)